{"data":{"norad_id":56338,"intl_designator":"2023-058X","name":"STARLINK-5554","alt_names":[],"object_type":"PAYLOAD","status":"ACTIVE","operator":null,"country":"US","launch_date":"2023-04-27","launch_site_code":"AFWTR","launch_vehicle":null,"mission":null,"orbit_class":"UNKNOWN","rcs_meters":null,"size_class":null,"mass_kg":null,"dimensions":null,"purposes":["comms"],"wikipedia_slug":null,"has_3d_model":false,"image_url":null,"decayed_at":null,"tle_current":{"epoch":"2026-09-20T22:00:03.000096Z","epoch_age_seconds":72794,"freshness":"FRESH","line1":"1 56338U 23058X   26263.91670139  .00722412  00000+0  33895-1 0  9994","line2":"2 56338  97.2847 257.8165 0001648  84.4741  92.3926 15.17152657  5786","mean_motion":15.17152657,"eccentricity":0.0001648,"inclination_deg":97.2847,"raan_deg":257.8165,"arg_perigee_deg":84.4741,"mean_anomaly_deg":92.3926,"bstar":0.033895,"rev_number":578,"period_min":94.914641144118,"perigee_km":513.31510760197,"apogee_km":515.58690460878,"semimajor_km":6892.5880061054,"source":"CELESTRAK","updated_at":"2026-09-21T09:00:33.404690Z"}}}